Weather Roundup
Issued by NWS

Home | Current Version | Previous Version | Text Only | Print | Product List | Glossary On
Versions: 1 2 3 4 5 6 7 8 9 10 11 12 13 14 15 16 17 18 19 20 21 22 23 24 25 26 27 28 29 30 31 32 33 34 35 36 37 38 39 40 41 42 43 44 45 46 47 48 49 50
409
NZUS99 KDVN 252210
HRRCWA
HOURLY WEATHER ROUNDUP
NATIONAL WEATHER SERVICE QUAD CITIES IA IL
500 PM CDT TUE SEP 25 2018

Note: "Fair" indicates few or no clouds below 12,000 feet with
no significant weather and/or obstructions to visibility.

* - These stations are not NWS stations and are not subject to NWS
quality control.  Some stations do not report weather such as fog
and some only report TMP and DP in whole degrees Celsius, which are
then converted to Fahrenheit.

...NORTHEAST IOWA..................................................

CITY           SKY/WX    TMP DP  RH WIND       PRES   REMARKS
DECORAH *      CLOUDY    55  54  94 NW12G20   29.90R
DUBUQUE        CLOUDY    64  61  90 NW10      29.85R
INDEPENDENCE * CLOUDY    59  55  86 NW14G20   29.92R
OELWEIN *      CLOUDY    57  55  94 NW12G21   29.93R
WATERLOO       CLOUDY    57  51  80 NW15G29   29.93R

...SOUTHWEST AND SOUTH CENTRAL WISCONSIN...........................

CITY           SKY/WX    TMP DP  RH WIND       PRES   REMARKS
BOSCOBEL       CLOUDY    62  58  86 NW5       29.85R
JANESVILLE *   TSTM      68  68 100 W9        29.80R
LONE ROCK      NOT AVBL
MINERAL POINT* FAIR      61 N/A N/A N3        29.81R
MONROE *       DRIZZLE   64  61  91 N6        29.78F
PRAIRIE DU CHI CLOUDY    58  57  97 W9        29.87R

...EAST CENTRAL IOWA...............................................

CITY           SKY/WX    TMP DP  RH WIND       PRES   REMARKS
CEDAR RAPIDS   CLOUDY    62  59  90 NW15G25   29.89R
CLINTON *      PTSUNNY   67  65  93 W8        29.82R
DAVENPORT      CLOUDY    69  66  90 W12       29.83R
IOWA CITY      CLOUDY    67  62  84 NW16G22   29.89R
MARSHALLTOWN   CLOUDY    58  55  90 NW16G25   29.96R
MONTICELLO *   CLOUDY    64  63  94 NW14      29.86R
MUSCATINE *    FAIR      72  64  78 NW15G22   29.85R
NEWTON *       CLOUDY    57  55  94 NW12G20   29.97R
VINTON *       CLOUDY    61  56  83 NW13G20   29.92R

...NORTHWEST ILLINOIS..............................................

CITY           SKY/WX    TMP DP  RH WIND       PRES   REMARKS
FREEPORT *     CLOUDY    65  65 100 W7        29.81F
MOLINE         PTSUNNY   72  68  87 W13       29.80R
PERU *         RAIN      69  66  90 W9G32     29.85R
ROCHELLE *     LGT RAIN  64  64  97 SW7       29.82F
ROCKFORD       LGT RAIN  67  65  93 S7        29.81S
SAVANNA *      CLOUDY    66  64  94 W8        29.81R
STERLING/R.F.* RAIN     N/A N/A N/A MISG        N/A

...SOUTHEAST IOWA AND NORTHEAST MISSOURI...........................

CITY           SKY/WX    TMP DP  RH WIND       PRES   REMARKS
BURLINGTON     CLOUDY    71  66  84 W6        29.84S
FAIRFIELD *    CLOUDY    68  61  77 NW20      29.89R
FORT MADISON * CLOUDY    70  68  94 W5        29.86R
KEOKUK *       CLOUDY    72  66  83 W5        29.84S
KIRKSVILLE     CLOUDY    74  64  71 W14G24    29.91R
MT PLEASANT *  CLOUDY    72  64  78 W10G23    29.87R
OTTUMWA        CLOUDY    61  59  93 NW21G29   29.93R
WASHINGTON *   PTSUNNY   68  64  88 NW16      29.89R

...WESTERN ILLINOIS................................................

CITY           SKY/WX    TMP DP  RH WIND       PRES   REMARKS
GALESBURG *    LGT RAIN  69  65  86 SW7       29.83F
MACOMB *       TSTM      69  68  95 W9G16     29.88R
PEORIA         PTSUNNY   82  66  58 SW14      29.80S HX  84
QUINCY         PTSUNNY   82  64  54 W13       29.83S HX  83

END...




USA.gov is the U.S. government's official web portal to all federal, state and local government web resources and services.